Location: Chircca
(13.7944°S, 72.0608°W)
Time: 07:16:15
(UTC+00:00)

Delta 142 - Pass Details

Date: 14 July 2020
Orbit: 548 x 1589 km, 28.4° (Epoch: 07 August)

Event Time Altitude Azimuth Distance (km) Brightness Sun altitude
Exits shadow 09:40:04 44° 247° (WSW) 1,258 4.6 -22.0°
Maximum altitude 09:42:16 86° 333° (NNW) 993 4.4 -21.5°
Drops below altitude 10° 09:50:01 10° 61° (ENE) 3,166 8.3 -19.7°
Sets 09:53:17 0° 61° (ENE) 4,292 9.4 -19.0°
